This demonstration page uses our WeatherBlox Daily Observations layout. Learn more.

Left ArrowRight Arrow

Hourly Observations for September 26, 2022

Temp ( °F °C ) Dew Point ( °F °C ) Humidity (%) Winds ( mph kmh ) Pressure ( in mb ) Visibility ( mi km ) Precip ( " mm )
12:53 am 00:53 Cloudy 77 25 74 23.3 90 90 SSE 5 7 30.02 1017 10 16 0.00 0.00
1:53 am 01:53 Cloudy 77 25 73 22.8 88 88 SSE 7 11 30.00 1016 10 16 0.00 0.00
2:53 am 02:53 Cloudy 77 25 71 21.7 82 82 SE 7 11 29.99 1016 10 16 0.00 0.00
3:53 am 03:53 Partly Cloudy 76 24.4 71 21.7 85 85 SE 3 6 29.98 1015 10 16 0.00 0.00
4:53 am 04:53 Clear 75 23.9 69 20.6 82 82 NE 5 7 29.99 1016 10 16 0.00 0.00
5:53 am 05:53 Partly Cloudy 74 23.3 68 20 82 82 NNE 6 9 30.01 1016 10 16 0.00 0.00
6:53 am 06:53 Sunny 76 24.4 66 18.9 71 71 NE 6 9 30.01 1016 10 16 0.00 0.00
7:53 am 07:53 Sunny 81 27.2 64 17.8 57 57 NE 9 15 30.02 1017 10 16 0.00 0.00
8:53 am 08:53 Sunny 83 28.3 66 18.9 57 57 NNE 8 13 30.02 1017 10 16 0.00 0.00
9:53 am 09:53 Mostly Sunny 83 28.3 68 20 61 61 W 10 17 30.02 1017 10 16 0.00 0.00
10:53 am 10:53 Mostly Sunny 84 28.9 69 20.6 61 61 W 10 17 30.02 1017 10 16 0.00 0.00
11:53 am 11:53 Sunny 85 29.4 71 21.7 63 63 WSW 12 19 30.00 1016 10 16 0.00 0.00
12:53 pm 12:53 Sunny 86 30 72 22.2 63 63 W 13 20 29.98 1015 10 16 0.00 0.00
1:53 pm 13:53 Mostly Sunny 86 30 72 22.2 63 63 WSW 13 20 29.96 1015 10 16 0.00 0.00
2:53 pm 14:53 Partly Cloudy 85 29.4 71 21.7 63 63 WSW 13 20 29.95 1014 10 16 0.00 0.00
3:53 pm 15:53 Mostly Cloudy 84 28.9 70 21.1 63 63 SW 10 17 29.96 1014 10 16 0.00 0.00
4:53 pm 16:53 Mostly Cloudy 84 28.9 70 21.1 63 63 SSW 9 15 29.96 1014 10 16 0.00 0.00
5:53 pm 17:53 Partly Cloudy 82 27.8 70 21.1 67 67 SSW 9 15 29.96 1015 10 16 0.00 0.00
6:53 pm 18:53 Mostly Cloudy 81 27.2 70 21.1 69 69 SE 7 11 29.98 1015 10 16 0.00 0.00
7:53 pm 19:53 Mostly Cloudy 81 27.2 69 20.6 67 67 Calm 30.01 1016 10 16 0.00 0.00
8:53 pm 20:53 Clear 79 26.1 68 20 69 69 ESE 7 11 30.03 1017 10 16 0.00 0.00
9:53 pm 21:53 Clear 79 26.1 62 16.7 56 56 ENE 8 13 30.04 1017 10 16 0.00 0.00
10:53 pm 22:53 Clear 78 25.6 63 17.2 60 60 NE 8 13 30.03 1017 10 16 0.00 0.00
11:53 pm 23:53 Clear 77 25 64 17.8 64 64 NNE 9 15 30.02 1017 10 16 0.00 0.00

Powered by AerisWeather